Weather History for Lone Rock, WI

Change the Weather History Date:

Thursday, September 5, 2013

  Actual Average Record
Temperature  
Mean Temperature 70 °F -  
Max Temperature 78 °F 77 °F 91 °F (1996)
Min Temperature 60 °F 52 °F 42 °F (2000)
Cooling Degree Days 6    
Growing Degree Days 20 (Base 50)    
Moisture  
Dew Point 62 °F    
Average Humidity 79    
Maximum Humidity 94    
Minimum Humidity 58    
Precipitation  
Precipitation 0.00 in - - ()
Sea Level Pressure  
Sea Level Pressure 30.19 in    
Wind  
Wind Speed 6 mph (East)    
Max Wind Speed 14 mph    
Max Gust Speed 20 mph    
Visibility 10 miles    
Events      
Averages and records for this station are not official NWS values.
T = Trace of Precipitation, MM = Missing Value Source: NWS Daily Summary

Daily Weather History Graph

Daily Weather History Graph

Search for Another Location

Airport:

Trip Planner

Search our weather history database for the weather conditions in past years. The results will help you decide how hot, cold, wet, or windy it might be!

Date:

Astronomy

Sep. 05, 2013 Rise Set
Actual Time 6:29 AM CDT 7:28 PM CDT
Civil Twilight 6:00 AM CDT 7:57 PM CDT
Nautical Twilight 5:25 AM CDT 8:31 PM CDT
Astronomical Twilight 4:49 AM CDT 9:07 PM CDT
Moon 6:43 AM CDT (9/5) 7:17 PM CDT (9/5)
Length of Visible Light 13h 56m
Length of Day
12h 58m
New Moon, 0% of the Moon is Illuminated
Sep 5
New Moon
Sep 12
First Quarter
Sep 19
Full
Sep 26
Last Quarter
Oct 4
New

Hourly Weather History & Observations

Time (CDT) Temp. Dew Point Humidity Pressure Visibility Wind Dir Wind Speed Gust Speed Precip Events Conditions
12:56 AM 66.9 °F 64.9 °F 93% 30.11 in 10.0 mi Calm Calm - N/A   Mostly Cloudy
1:56 AM 68.0 °F 64.9 °F 90% 30.12 in 10.0 mi East 5.8 mph - N/A   Partly Cloudy
2:56 AM 66.9 °F 64.0 °F 90% 30.13 in 10.0 mi ENE 5.8 mph - N/A   Clear
3:08 AM 66.2 °F 64.4 °F 94% 30.15 in 10.0 mi ENE 6.9 mph - N/A   Scattered Clouds
3:18 AM 66.2 °F 64.4 °F 94% 30.16 in 10.0 mi ENE 6.9 mph - N/A   Mostly Cloudy
3:56 AM 66.0 °F 64.0 °F 93% 30.14 in 10.0 mi East 6.9 mph - N/A   Overcast
4:56 AM 66.0 °F 63.0 °F 90% 30.16 in 10.0 mi East 6.9 mph - N/A   Overcast
5:56 AM 66.0 °F 63.0 °F 90% 30.17 in 10.0 mi ENE 5.8 mph - N/A   Overcast
6:27 AM 66.2 °F 62.6 °F 88% 30.22 in 10.0 mi ENE 8.1 mph - N/A   Overcast
6:41 AM 66.2 °F 62.6 °F 88% 30.22 in 10.0 mi East 9.2 mph - N/A   Overcast
6:56 AM 66.0 °F 63.0 °F 90% 30.20 in 10.0 mi East 8.1 mph - N/A   Overcast
7:08 AM 66.2 °F 62.6 °F 88% 30.23 in 10.0 mi East 8.1 mph - N/A   Overcast
7:44 AM 66.2 °F 62.6 °F 88% 30.23 in 10.0 mi East 10.4 mph - N/A   Overcast
7:56 AM 66.9 °F 62.1 °F 84% 30.21 in 10.0 mi East 9.2 mph - N/A   Overcast
8:56 AM 66.9 °F 61.0 °F 81% 30.22 in 10.0 mi East 9.2 mph - N/A   Overcast
9:18 AM 69.8 °F 59.0 °F 68% 30.25 in 10.0 mi East 13.8 mph 19.6 mph N/A   Scattered Clouds
9:56 AM 71.1 °F 59.0 °F 66% 30.24 in 10.0 mi East 11.5 mph - N/A   Clear
10:56 AM 72.0 °F 59.0 °F 64% 30.24 in 10.0 mi East 10.4 mph - N/A   Clear
11:56 AM 75.0 °F 60.1 °F 60% 30.23 in - North - - N/A   Clear
12:56 PM 77.0 °F 61.0 °F 58% 30.23 in 10.0 mi SE 8.1 mph - N/A   Partly Cloudy
1:56 PM 77.0 °F 62.1 °F 60% 30.22 in 10.0 mi East 10.4 mph - N/A   Overcast
2:56 PM 78.1 °F 63.0 °F 60% 30.20 in 10.0 mi East 8.1 mph - N/A   Scattered Clouds
3:56 PM 77.0 °F 62.1 °F 60% 30.19 in 10.0 mi East 5.8 mph - N/A   Clear
4:56 PM 77.0 °F 63.0 °F 62% 30.18 in 10.0 mi ESE 4.6 mph - N/A   Clear
5:56 PM 75.9 °F 63.0 °F 64% 30.17 in 10.0 mi SE 5.8 mph - N/A   Clear
6:56 PM 73.0 °F 62.1 °F 68% 30.17 in 10.0 mi ESE 4.6 mph - N/A   Clear
7:56 PM 66.9 °F 61.0 °F 81% 30.18 in 10.0 mi East 5.8 mph - N/A   Clear
8:56 PM 64.9 °F 60.1 °F 84% 30.19 in 10.0 mi East 3.5 mph - N/A   Clear
9:56 PM 64.0 °F 60.1 °F 87% 30.20 in 10.0 mi ESE 4.6 mph - N/A   Clear
10:56 PM 63.0 °F 57.9 °F 84% 30.20 in 10.0 mi East 6.9 mph - N/A   Clear
11:56 PM 60.1 °F 55.9 °F 86% 30.20 in 10.0 mi East 5.8 mph - N/A   Clear